Sigfox identifier Datetime Temperature Humidity SNR
003A4E6D 2019-04-23 14:58:45 16.1 32 23.2
003A4E6D 2019-04-23 14:24:43 15.9 32 23.2
003A4E6D 2019-04-23 13:50:40 15.9 32 23.2
003A4E6D 2019-04-23 13:16:38 15.7 32 23.3
003A4E6D 2019-04-23 12:42:37 15.7 32 23.1
003A4E6D 2019-04-23 12:08:35 15.6 32 22.4
003A4E6D 2019-04-23 11:34:34 15.5 32 22.4
003A4E6D 2019-04-23 11:00:34 15.5 32 22.4
003A4E6D 2019-04-23 10:26:34 15.5 31 22.5
003A4E6D 2019-04-23 09:52:33 15.5 31 22.2
003A4E6D 2019-04-23 09:18:34 15.4 31 22.2
003A4E6D 2019-04-23 08:44:33 15.3 31 22.1
003A4E6D 2019-04-23 08:10:32 15.4 31 22.3
003A4E6D 2019-04-23 07:36:31 15.4 31 22.3
003A4E6D 2019-04-23 07:02:31 15.5 31 22.3
003A4E6D 2019-04-23 06:28:31 15.3 31 22.1
003A4E6D 2019-04-23 05:54:30 15.3 31 22.2
003A4E6D 2019-04-23 05:20:29 15.3 31 22.2
003A4E6D 2019-04-23 04:46:29 15.3 31 22.1
003A4E6D 2019-04-23 04:12:28 15.3 31 22
003A4E6D 2019-04-23 03:38:26 15.3 31 22.1
003A4E6D 2019-04-23 03:04:26 15.3 31 21.9
003A4E6D 2019-04-23 02:30:25 15.3 31 21.9
003A4E6D 2019-04-23 01:56:24 15.4 31 21.8
003A4E6D 2019-04-23 01:22:24 15.5 31 21.8
003A4E6D 2019-04-23 00:48:27 15.5 31 21.7
003A4E6D 2019-04-23 00:14:21 15.5 31 21.7
003A4E6D 2019-04-22 23:40:20 15.5 31 21.8
003A4E6D 2019-04-22 23:06:19 15.5 31 21.8
003A4E6D 2019-04-22 22:32:19 15.5 31 21.8
003A4E6D 2019-04-22 21:58:19 15.5 31 21.9
003A4E6D 2019-04-22 21:24:18 15.6 31 22
003A4E6D 2019-04-22 20:50:18 15.6 31 22.1
003A4E6D 2019-04-22 20:16:17 15.7 31 22
003A4E6D 2019-04-22 19:42:17 15.7 31 22
003A4E6D 2019-04-22 19:08:16 15.7 31 22.1
003A4E6D 2019-04-22 18:34:14 15.7 31 22.1
003A4E6D 2019-04-22 18:00:13 15.7 31 22
003A4E6D 2019-04-22 17:26:11 15.7 31 21.9
003A4E6D 2019-04-22 16:52:10 15.7 31 21.8
003A4E6D 2019-04-22 16:18:08 15.7 31 21.7
003A4E6D 2019-04-22 15:44:06 15.6 31 21.7
003A4E6D 2019-04-22 15:10:04 15.6 31 21.6
003A4E6D 2019-04-22 14:36:04 15.5 31 21.6
003A4E6D 2019-04-22 14:02:02 15.5 31 21.7
003A4E6D 2019-04-22 13:28:01 15.5 31 21.6
003A4E6D 2019-04-22 12:53:59 15.5 31 21.6
003A4E6D 2019-04-22 12:19:57 15.5 31 21.6
003A4E6D 2019-04-22 11:45:56 15.5 31 21.6
003A4E6D 2019-04-22 11:11:55 15.5 31 21.4
003A4E6D 2019-04-22 10:37:54 15.5 31 21.4
003A4E6D 2019-04-22 10:03:53 15.3 30 21.5
003A4E6D 2019-04-22 09:29:53 15.3 30 21.4
003A4E6D 2019-04-22 08:55:52 15.3 30 21.4
003A4E6D 2019-04-22 08:21:52 15.3 30 21.3
003A4E6D 2019-04-22 07:47:52 15.4 30 21.1
003A4E6D 2019-04-22 07:13:51 15.4 30 21
003A4E6D 2019-04-22 06:39:51 15.5 30 20.8
003A4E6D 2019-04-22 06:05:51 15.5 30 20.7
003A4E6D 2019-04-22 05:31:50 15.4 30 20.7
003A4E6D 2019-04-22 04:57:50 15.3 30 20.6
003A4E6D 2019-04-22 04:23:50 15.5 30 20.6
003A4E6D 2019-04-22 03:49:50 15.3 30 20.8
003A4E6D 2019-04-22 03:15:51 15.3 30 20.8
003A4E6D 2019-04-22 02:41:52 15.3 30 20.8
003A4E6D 2019-04-22 02:07:52 15.3 30 20.9
003A4E6D 2019-04-22 01:33:52 15.3 30 21
003A4E6D 2019-04-22 00:59:52 15.3 30 20.9
003A4E6D 2019-04-22 00:25:51 15.3 30 20.9
003A4E6D 2019-04-21 23:51:51 15.3 30 20.8
003A4E6D 2019-04-21 23:17:50 15.3 30 20.9
003A4E6D 2019-04-21 22:43:50 15.3 30 20.9
003A4E6D 2019-04-21 22:09:49 15.3 30 20.8
003A4E6D 2019-04-21 21:35:49 15.3 30 20.9
003A4E6D 2019-04-21 21:01:49 15.3 30 21.1
003A4E6D 2019-04-21 20:27:49 15.3 30 21.1
003A4E6D 2019-04-21 19:53:48 15.3 30 20.9
003A4E6D 2019-04-21 19:19:48 15.3 30 20.8
003A4E6D 2019-04-21 18:45:46 15.3 30 20.9
003A4E6D 2019-04-21 18:11:45 15.3 30 20.8
003A4E6D 2019-04-21 17:37:44 15.2 30 20.8
003A4E6D 2019-04-21 17:03:44 15.2 30 20.8
003A4E6D 2019-04-21 16:29:44 15.2 30 20.9
003A4E6D 2019-04-21 15:55:43 15.1 30 21.1
003A4E6D 2019-04-21 15:21:43 15.1 30 21.1
003A4E6D 2019-04-21 14:47:44 15.2 30 21.1
003A4E6D 2019-04-21 14:13:43 15.1 30 21.2
003A4E6D 2019-04-21 13:39:44 15.2 30 21.2
003A4E6D 2019-04-21 13:05:44 15.2 29 21.2
003A4E6D 2019-04-21 12:31:44 15.2 29 21.3
003A4E6D 2019-04-21 11:57:45 15.2 29 21.3
003A4E6D 2019-04-21 11:23:46 15.1 29 21.4
003A4E6D 2019-04-21 10:49:45 15.3 29 21.5
003A4E6D 2019-04-21 10:15:46 15.3 29 21.5
003A4E6D 2019-04-21 09:41:47 15.3 29 21.6
003A4E6D 2019-04-21 09:07:47 15.3 29 21.7
003A4E6D 2019-04-21 08:33:48 15.5 29 21.7
003A4E6D 2019-04-21 07:59:49 15.5 29 21.7
003A4E6D 2019-04-21 07:25:49 15.4 29 21.6
003A4E6D 2019-04-21 06:51:49 15.4 29 21.6
003A4E6D 2019-04-21 06:17:49 15.5 29 21.6
003A4E6D 2019-04-21 05:43:48 15.3 29 21.7
003A4E6D 2019-04-21 05:09:48 15.5 29 21.8
003A4E6D 2019-04-21 04:35:47 15.3 29 21.7
003A4E6D 2019-04-21 04:01:47 15.4 29 21.7
003A4E6D 2019-04-21 03:27:47 15.3 29 21.7
003A4E6D 2019-04-21 02:53:47 15.3 29 21.7
003A4E6D 2019-04-21 02:19:48 15.3 29 21.6
003A4E6D 2019-04-21 01:45:48 15.3 29 21.5
003A4E6D 2019-04-21 01:11:48 15.3 29 21.4
003A4E6D 2019-04-21 00:37:48 15.3 29 21.2
003A4E6D 2019-04-21 00:03:49 15.3 29 21.2
003A4E6D 2019-04-20 23:29:50 15.3 29 21.1
003A4E6D 2019-04-20 22:55:50 15.3 29 21.1
003A4E6D 2019-04-20 22:21:50 15.3 29 21.1
003A4E6D 2019-04-20 21:47:50 15.3 29 21.2
003A4E6D 2019-04-20 21:13:49 15.3 29 21.3
003A4E6D 2019-04-20 20:39:49 15.3 29 21.3
003A4E6D 2019-04-20 20:05:48 15.3 29 21.4
003A4E6D 2019-04-20 19:31:47 15.3 29 21.4
003A4E6D 2019-04-20 18:57:46 15.3 29 21.3
003A4E6D 2019-04-20 18:23:45 15.3 29 21.3
003A4E6D 2019-04-20 17:49:44 15.3 29 21.3
003A4E6D 2019-04-20 17:15:42 15.3 29 21.4
003A4E6D 2019-04-20 16:41:42 15.3 29 21.4
003A4E6D 2019-04-20 16:07:41 15.3 28 21.5
003A4E6D 2019-04-20 15:33:41 15.3 29 21.5
003A4E6D 2019-04-20 14:59:40 15.3 28 21.6
003A4E6D 2019-04-20 14:25:39 15.3 28 21.6
003A4E6D 2019-04-20 13:51:38 15.3 28 21.7
003A4E6D 2019-04-20 13:17:37 15.3 28 21.7
003A4E6D 2019-04-20 12:43:35 15.3 28 21.8
003A4E6D 2019-04-20 12:09:35 15.3 28 21.7
003A4E6D 2019-04-20 11:35:35 15.3 28 21.8
003A4E6D 2019-04-20 11:01:35 15.3 28 21.8
003A4E6D 2019-04-20 10:27:34 15.3 28 21.9
003A4E6D 2019-04-20 09:53:34 15.3 28 21.9
003A4E6D 2019-04-20 09:19:33 15.4 28 21.9
003A4E6D 2019-04-20 08:45:32 15.5 28 21.9
003A4E6D 2019-04-20 08:11:31 15.5 28 21.9
003A4E6D 2019-04-20 07:37:30 15.5 28 21.7
003A4E6D 2019-04-20 07:03:29 15.5 28 21.6
003A4E6D 2019-04-20 06:29:28 15.5 28 21.4
003A4E6D 2019-04-20 05:55:28 15.5 28 21.4
003A4E6D 2019-04-20 05:21:28 15.5 28 21.4
003A4E6D 2019-04-20 04:47:28 15.5 28 21.4
003A4E6D 2019-04-20 04:13:27 15.5 28 21.4
003A4E6D 2019-04-20 03:39:28 15.5 28 21.3
003A4E6D 2019-04-20 03:05:28 15.5 28 21.2
003A4E6D 2019-04-20 02:31:28 15.6 28 21.2
003A4E6D 2019-04-20 01:57:27 15.7 28 21
003A4E6D 2019-04-20 01:23:26 15.7 28 21
003A4E6D 2019-04-20 00:49:26 15.7 28 20.9
003A4E6D 2019-04-20 00:15:24 15.7 28 21
003A4E6D 2019-04-19 23:41:24 15.7 28 20.9
003A4E6D 2019-04-19 23:07:23 15.8 28 20.9
003A4E6D 2019-04-19 22:33:25 15.8 28 21
003A4E6D 2019-04-19 21:59:21 15.9 28 21.2
003A4E6D 2019-04-19 21:25:20 15.9 27 21.2
003A4E6D 2019-04-19 20:51:19 15.9 27 21.3
003A4E6D 2019-04-19 20:17:17 15.9 27 21.3
003A4E6D 2019-04-19 19:43:16 15.9 27 21.4
003A4E6D 2019-04-19 19:09:14 15.9 27 21.4
003A4E6D 2019-04-19 18:35:13 15.9 27 21.5
003A4E6D 2019-04-19 18:01:12 15.9 27 21.4
003A4E6D 2019-04-19 17:27:10 15.9 27 21.5
003A4E6D 2019-04-19 16:53:09 15.9 27 21.5
003A4E6D 2019-04-19 16:19:06 15.9 27 21.7
003A4E6D 2019-04-19 15:45:06 15.8 27 21.7
003A4E6D 2019-04-19 15:11:04 15.8 27 21.7
003A4E6D 2019-04-19 14:37:03 15.7 27 21.8
003A4E6D 2019-04-19 14:03:02 15.7 27 21.8
003A4E6D 2019-04-19 13:29:01 15.7 27 21.9
003A4E6D 2019-04-19 12:55:00 15.7 27 22
003A4E6D 2019-04-19 12:21:00 15.6 27 22.1
003A4E6D 2019-04-19 11:47:01 15.6 27 22.1
003A4E6D 2019-04-19 11:13:01 15.6 27 22.2
003A4E6D 2019-04-19 10:39:01 15.6 27 22.2
003A4E6D 2019-04-19 10:04:59 15.5 27 22.2
003A4E6D 2019-04-19 09:30:59 15.5 27 22.2
003A4E6D 2019-04-19 08:56:59 15.5 27 22.5
003A4E6D 2019-04-19 08:22:59 15.5 27 22.5
003A4E6D 2019-04-19 07:48:58 15.6 27 22.5
003A4E6D 2019-04-19 07:14:58 15.6 27 22.5
003A4E6D 2019-04-19 06:40:58 15.7 26 22.7
003A4E6D 2019-04-19 06:06:58 15.7 26 22.8
003A4E6D 2019-04-19 05:32:58 15.7 26 23
003A4E6D 2019-04-19 04:58:58 15.7 26 23.2
003A4E6D 2019-04-19 04:24:57 15.7 26 23.3
003A4E6D 2019-04-19 03:50:57 15.7 26 23.4
003A4E6D 2019-04-19 03:16:56 15.7 26 23.4
003A4E6D 2019-04-19 02:42:56 15.7 26 23.6
003A4E6D 2019-04-19 02:08:55 15.9 26 23.4
003A4E6D 2019-04-19 01:34:55 15.9 26 23.3
003A4E6D 2019-04-19 01:00:55 15.9 26 23.4
003A4E6D 2019-04-19 00:26:53 16.1 26 23.4
003A4E6D 2019-04-18 23:52:53 16.1 26 23.5
003A4E6D 2019-04-18 23:18:51 16.1 26 23.5
003A4E6D 2019-04-18 22:44:50 16.1 26 23.5
003A4E6D 2019-04-18 22:10:49 16.3 26 23.6
003A4E6D 2019-04-18 21:36:49 16.3 26 23.7
003A4E6D 2019-04-18 21:02:48 16.3 26 23.7
003A4E6D 2019-04-18 20:28:48 16.3 26 23.7
003A4E6D 2019-04-18 19:54:47 16.3 26 23.7
003A4E6D 2019-04-18 19:20:46 16.3 26 23.8
003A4E6D 2019-04-18 18:46:46 16.3 26 23.7
003A4E6D 2019-04-18 18:12:45 16.3 26 23.7
003A4E6D 2019-04-18 17:38:44 16.3 26 23.7
003A4E6D 2019-04-18 17:04:43 16.3 26 23.8
003A4E6D 2019-04-18 16:30:43 16.3 26 23.7
003A4E6D 2019-04-18 15:56:42 16.2 26 23.6
003A4E6D 2019-04-18 15:22:42 16.1 26 23.5
003A4E6D 2019-04-18 14:48:42 16.1 26 23.3
003A4E6D 2019-04-18 14:14:42 16 25 23.3
003A4E6D 2019-04-18 13:40:42 15.9 25 23.2
003A4E6D 2019-04-18 13:06:42 15.9 25 23.2
003A4E6D 2019-04-18 12:32:42 15.9 25 23.2
003A4E6D 2019-04-18 11:58:43 15.9 25 23.3
003A4E6D 2019-04-18 11:24:42 15.9 25 23.6
003A4E6D 2019-04-18 10:50:44 15.9 25 23.6
003A4E6D 2019-04-18 10:16:43 15.9 25 23.6
003A4E6D 2019-04-18 09:42:43 15.8 25 23.7
003A4E6D 2019-04-18 09:08:43 15.9 25 23.8
003A4E6D 2019-04-18 08:34:43 15.9 25 23.8
003A4E6D 2019-04-18 08:00:42 15.9 25 23.9
003A4E6D 2019-04-18 07:26:42 15.9 25 23.8
003A4E6D 2019-04-18 06:52:42 15.9 25 23.9
003A4E6D 2019-04-18 06:18:41 15.9 25 23.9
003A4E6D 2019-04-18 05:44:41 15.9 25 23.8
003A4E6D 2019-04-18 05:10:41 15.9 25 23.7
003A4E6D 2019-04-18 04:36:40 15.9 24 23.6
003A4E6D 2019-04-18 04:02:41 15.9 24 23.4
003A4E6D 2019-04-18 03:28:41 15.9 24 23.3
003A4E6D 2019-04-18 02:54:41 15.9 24 23.3
003A4E6D 2019-04-18 02:20:41 16 24 23.1
003A4E6D 2019-04-18 01:46:42 16.1 24 23.1
003A4E6D 2019-04-18 01:12:42 16.1 24 23
003A4E6D 2019-04-18 00:38:42 16.3 24 22.9
003A4E6D 2019-04-18 00:04:43 16.4 24 22.8
003A4E6D 2019-04-17 23:30:42 16.4 24 22.8
003A4E6D 2019-04-17 22:56:42 16.5 24 22.6
003A4E6D 2019-04-17 22:22:41 16.5 24 22.5
003A4E6D 2019-04-17 21:48:41 16.5 24 22.3
003A4E6D 2019-04-17 21:14:40 16.3 24 22.1
003A4E6D 2019-04-17 20:40:40 16.4 24 21.9
003A4E6D 2019-04-17 20:06:40 16.4 24 21.7
003A4E6D 2019-04-17 19:32:40 16.4 24 21.4
003A4E6D 2019-04-17 18:58:38 16.4 24 21.2
003A4E6D 2019-04-17 18:24:38 16.4 24 21
003A4E6D 2019-04-17 17:50:37 16.3 24 20.7
003A4E6D 2019-04-17 17:16:36 16.4 23 20.7
003A4E6D 2019-04-17 16:42:35 16.3 23 20.6
003A4E6D 2019-04-17 16:08:35 16.4 23 20.5
003A4E6D 2019-04-17 15:34:33 16.4 23 20.5
003A4E6D 2019-04-17 15:00:33 16.5 23 21.7
003A4E6D 2019-04-17 14:26:33 16.7 23 21.6
003A4E6D 2019-04-17 13:52:32 16.8 23 21.8
003A4E6D 2019-04-17 12:44:27 16.8 23 22.7
003A4E6D 2019-04-17 12:10:25 16.8 23 22.7
003A4E6D 2019-04-17 11:36:23 16.8 23 22.8
003A4E6D 2019-04-17 11:02:22 16.7 23 22.7
003A4E6D 2019-04-17 10:28:20 16.8 23 22.6
003A4E6D 2019-04-17 09:54:19 16.8 23 22.5
003A4E6D 2019-04-17 09:20:18 16.8 22 22.4
003A4E6D 2019-04-17 08:46:16 16.9 22 22.4
003A4E6D 2019-04-17 08:12:15 17 22 22.3
003A4E6D 2019-04-17 07:38:15 17.2 22 22.4
003A4E6D 2019-04-17 07:04:13 17.3 22 22.4
003A4E6D 2019-04-17 06:30:12 17.4 22 22.6
003A4E6D 2019-04-17 05:56:11 17.4 22 22.6
003A4E6D 2019-04-17 05:22:09 17.4 22 22.6
003A4E6D 2019-04-17 04:48:08 17.6 22 22.5
003A4E6D 2019-04-17 04:14:08 17.6 22 22.4
003A4E6D 2019-04-17 03:40:07 17.6 22 22.4
003A4E6D 2019-04-17 03:06:07 17.8 22 22.2
003A4E6D 2019-04-17 02:32:05 17.8 22 22.2
003A4E6D 2019-04-17 01:58:03 17.9 22 21.9
003A4E6D 2019-04-17 01:24:01 17.9 21 21.9
003A4E6D 2019-04-17 00:49:59 17.9 21 21.8
003A4E6D 2019-04-17 00:15:58 17.9 21 20.6
003A4E6D 2019-04-16 23:41:57 17.9 21 20.4
003A4E6D 2019-04-16 23:07:56 18 21 20.2
003A4E6D 2019-04-16 22:33:54 18.3 20 18.3
003A4E6D 2019-04-16 21:59:53 18.5 21 18.1
003A4E6D 2019-04-16 21:25:52 18.7 21 17.8
003A4E6D 2019-04-16 20:51:51 18.7 21 17.5
003A4E6D 2019-04-16 20:17:48 18.9 21 17.6
003A4E6D 2019-04-16 19:43:47 18.9 21 17.8
003A4E6D 2019-04-16 19:09:45 18.9 21 17.8
003A4E6D 2019-04-16 18:35:44 18.9 20 18
003A4E6D 2019-04-16 18:01:43 19.1 20 18
003A4E6D 2019-04-16 16:19:39 19.5 19 17.5
003A4E6D 2019-04-16 15:11:34 20.2 19 17.3
003A4E6D 2019-04-16 14:37:34 20.6 19 16.7
003A4E6D 2019-04-16 14:03:32 20.8 21 16.1
003A4E6D 2019-04-16 13:29:31 20.8 21 16.1
003A4E6D 2019-04-16 12:55:29 20.8 21 16.4
003A4E6D 2019-04-16 12:21:25 20.8 21 16.3
003A4E6D 2019-04-16 11:47:27 20.8 21 16.4
003A4E6D 2019-04-16 11:13:23 20.8 21 16.5
003A4E6D 2019-04-16 10:39:21 20.7 20 16.4
003A4E6D 2019-04-16 10:05:17 20.6 20 16.5
003A4E6D 2019-04-16 09:31:16 20.6 20 16.5
003A4E6D 2019-04-16 08:57:14 20.6 20 16.3
003A4E6D 2019-04-16 08:23:14 20.6 20 16.2
003A4E6D 2019-04-16 07:49:12 20.6 20 16.3
003A4E6D 2019-04-16 07:15:10 20.6 20 16.4
003A4E6D 2019-04-16 06:41:05 20.7 20 19.1
003A4E6D 2019-04-16 06:07:03 20.7 20 19
003A4E6D 2019-04-16 05:33:01 20.7 20 19
003A4E6D 2019-04-16 04:59:00 20.7 20 19
003A4E6D 2019-04-16 04:25:00 20.7 20 19
003A4E6D 2019-04-16 03:50:55 20.7 20 18.8
003A4E6D 2019-04-16 03:16:54 20.8 20 18.7
003A4E6D 2019-04-16 02:42:52 20.8 20 18.6
003A4E6D 2019-04-16 02:08:50 20.8 20 18.6
003A4E6D 2019-04-16 01:34:47 20.8 20 18.9
003A4E6D 2019-04-16 01:00:44 20.8 20 18.9
003A4E6D 2019-04-16 00:26:42 20.8 20 19.1
003A4E6D 2019-04-15 23:52:41 20.8 20 19.2
003A4E6D 2019-04-15 23:18:40 20.8 20 19.4
003A4E6D 2019-04-15 22:44:36 20.8 20 19.6
003A4E6D 2019-04-15 22:10:33 20.8 19 19.9
003A4E6D 2019-04-15 21:36:30 20.8 19 20
003A4E6D 2019-04-15 21:02:28 20.8 19 20.6
003A4E6D 2019-04-15 20:28:26 20.8 19 21
003A4E6D 2019-04-15 19:54:23 20.8 19 21.4
003A4E6D 2019-04-15 19:20:21 20.9 19 21.8
003A4E6D 2019-04-15 18:46:17 20.9 19 22.1
003A4E6D 2019-04-15 18:12:15 21 19 22.3
003A4E6D 2019-04-15 17:38:13 21 19 22.7
003A4E6D 2019-04-15 17:04:10 21 19 21.9
003A4E6D 2019-04-15 16:30:10 21.2 19 21.9
003A4E6D 2019-04-15 15:56:06 21.3 19 22.2
003A4E6D 2019-04-15 15:22:03 21.3 19 22.5
003A4E6D 2019-04-15 14:48:02 21.4 18 22.6
003A4E6D 2019-04-15 14:14:00 21.5 18 23.4
003A4E6D 2019-04-15 13:39:59 21.7 18 23.6
003A4E6D 2019-04-15 13:05:57 21.9 18 23.8
003A4E6D 2019-04-15 12:31:56 22.1 18 24
003A4E6D 2019-04-15 11:57:51 21.9 16 24
003A4E6D 2019-04-15 11:23:48 21.9 16 24.1
003A4E6D 2019-04-15 10:49:45 21.9 16 24.3
003A4E6D 2019-04-15 10:15:43 21.9 16 24.3
003A4E6D 2019-04-15 09:41:41 21.9 17 24.4
003A4E6D 2019-04-15 09:07:39 21.7 17 24.4
003A4E6D 2019-04-15 08:33:36 21.7 17 24.5
003A4E6D 2019-04-15 07:59:34 21.7 17 24.5
003A4E6D 2019-04-15 07:25:31 21.6 17 24.4
003A4E6D 2019-04-15 06:51:30 21.5 17 24.4
003A4E6D 2019-04-15 06:17:28 21.5 17 24.4
003A4E6D 2019-04-15 05:43:25 21.5 17 24.4
003A4E6D 2019-04-15 05:09:22 21.5 17 24.2
003A4E6D 2019-04-15 04:35:20 21.5 17 24.2
003A4E6D 2019-04-15 04:01:18 21.5 17 24.1
003A4E6D 2019-04-15 03:27:14 21.5 17 24
003A4E6D 2019-04-15 02:53:11 21.5 17 24.1
003A4E6D 2019-04-15 02:19:08 21.5 17 24.2
003A4E6D 2019-04-15 01:45:04 21.5 17 24.2
003A4E6D 2019-04-15 01:11:01 21.5 17 24.2
003A4E6D 2019-04-15 00:36:57 21.5 17 24.2
003A4E6D 2019-04-15 00:02:59 21.5 18 24.2
003A4E6D 2019-04-14 23:28:53 21.5 17 24.2
003A4E6D 2019-04-14 22:54:49 21.6 18 24.2
003A4E6D 2019-04-14 22:20:46 21.7 18 24.1
003A4E6D 2019-04-14 21:46:42 21.7 18 24.2
003A4E6D 2019-04-14 21:12:39 21.7 18 24.2
003A4E6D 2019-04-14 20:38:36 21.7 18 24.2
003A4E6D 2019-04-14 20:04:32 21.7 18 24.2
003A4E6D 2019-04-14 19:30:28 21.7 18 24.2
003A4E6D 2019-04-14 18:56:26 21.7 18 24.3
003A4E6D 2019-04-14 18:22:22 21.7 18 24.4
003A4E6D 2019-04-14 17:48:19 21.7 18 24.4
003A4E6D 2019-04-14 17:14:15 21.7 18 24.4
003A4E6D 2019-04-14 16:40:12 21.7 18 24.3
003A4E6D 2019-04-14 16:06:07 21.7 18 24.4
003A4E6D 2019-04-14 15:32:04 21.7 18 24.5
003A4E6D 2019-04-14 14:58:02 21.7 18 24.7
003A4E6D 2019-04-14 14:23:59 21.7 18 24.9
003A4E6D 2019-04-14 13:49:57 21.7 18 25
003A4E6D 2019-04-14 13:15:55 21.7 18 25
003A4E6D 2019-04-14 12:41:52 21.7 18 25.1
003A4E6D 2019-04-14 12:07:49 21.7 18 25
003A4E6D 2019-04-14 11:33:47 21.7 18 25.1
003A4E6D 2019-04-14 10:59:45 21.7 18 25.2
003A4E6D 2019-04-14 10:25:43 21.7 18 25.3
003A4E6D 2019-04-14 09:51:41 21.6 18 24.9
003A4E6D 2019-04-14 09:17:37 21.7 18 24.8
003A4E6D 2019-04-14 08:43:34 21.7 18 24.8
003A4E6D 2019-04-14 08:09:31 21.7 18 25
003A4E6D 2019-04-14 07:35:27 21.6 18 25
003A4E6D 2019-04-14 07:01:24 21.7 18 25
003A4E6D 2019-04-14 06:27:21 21.6 18 25
003A4E6D 2019-04-14 05:53:18 21.6 18 25
003A4E6D 2019-04-14 05:19:16 21.7 18 25
003A4E6D 2019-04-14 04:45:15 21.6 18 25.3
003A4E6D 2019-04-14 04:11:12 21.7 17 25.4
003A4E6D 2019-04-14 03:37:10 21.7 18 25.4
003A4E6D 2019-04-14 03:03:06 21.7 18 25.4
003A4E6D 2019-04-14 02:29:03 21.7 18 25.4
003A4E6D 2019-04-14 01:55:00 21.7 18 25.4
003A4E6D 2019-04-14 01:20:57 21.7 18 25.3
003A4E6D 2019-04-14 00:46:54 21.7 18 25.3
003A4E6D 2019-04-14 00:12:52 21.7 18 25.2
003A4E6D 2019-04-13 23:38:50 21.8 18 25
003A4E6D 2019-04-13 23:04:46 21.8 17 25
003A4E6D 2019-04-13 22:30:42 21.8 17 25.1
003A4E6D 2019-04-13 21:56:39 21.8 17 25
003A4E6D 2019-04-13 21:22:35 21.9 17 25
003A4E6D 2019-04-13 20:48:32 21.9 17 24.9
003A4E6D 2019-04-13 20:14:28 21.9 17 24.9
003A4E6D 2019-04-13 19:40:24 21.9 17 25
003A4E6D 2019-04-13 19:06:21 21.9 17 25.1
003A4E6D 2019-04-13 18:32:17 21.9 17 25.4
003A4E6D 2019-04-13 17:58:13 21.9 17 25.4
003A4E6D 2019-04-13 17:24:09 22 18 25.3
003A4E6D 2019-04-13 16:50:06 21.9 18 25.3
003A4E6D 2019-04-13 16:16:02 22.1 18 25.2
003A4E6D 2019-04-13 15:41:59 22 18 25.2
003A4E6D 2019-04-13 15:07:56 22.1 18 25.2
003A4E6D 2019-04-13 14:33:53 22.1 17 24.8
003A4E6D 2019-04-13 13:59:48 22.1 18 24.8
003A4E6D 2019-04-13 13:25:44 22.1 18 24.8
003A4E6D 2019-04-13 12:51:41 22.1 17 24.8
003A4E6D 2019-04-13 12:17:38 22.1 18 25.2
003A4E6D 2019-04-13 11:43:36 22.1 18 25.2
003A4E6D 2019-04-13 11:09:32 22.1 18 25.2
003A4E6D 2019-04-13 10:35:29 22.1 18 25.1
003A4E6D 2019-04-13 10:01:26 22.1 17 25.1
003A4E6D 2019-04-13 09:27:23 22.1 17 25.1
003A4E6D 2019-04-13 08:53:21 22.1 17 25.2
003A4E6D 2019-04-13 08:19:18 22.1 17 25.2
003A4E6D 2019-04-13 07:45:14 22.1 17 25.3
003A4E6D 2019-04-13 07:11:11 22.1 17 25.3
003A4E6D 2019-04-13 06:37:08 22.1 17 25.3
003A4E6D 2019-04-13 06:03:06 22.1 17 25.3
003A4E6D 2019-04-13 05:29:02 22.1 17 25.2
003A4E6D 2019-04-13 04:54:58 22.1 17 25.1
003A4E6D 2019-04-13 04:20:53 22.1 17 25.1
003A4E6D 2019-04-13 03:46:51 22.1 17 24.9
003A4E6D 2019-04-13 03:12:47 22.1 17 24.9
003A4E6D 2019-04-13 02:38:43 22.1 17 25
003A4E6D 2019-04-13 02:04:39 22.2 17 25.1
003A4E6D 2019-04-13 01:30:34 22.3 18 25.1
003A4E6D 2019-04-13 00:56:31 22.3 18 25.2
003A4E6D 2019-04-13 00:22:26 22.3 18 25.2
003A4E6D 2019-04-12 23:48:23 22.3 18 25.2
003A4E6D 2019-04-12 23:14:19 22.3 18 25.2
003A4E6D 2019-04-12 22:40:14 22.4 18 25.3
003A4E6D 2019-04-12 22:06:10 22.5 18 24.7
003A4E6D 2019-04-12 21:32:06 22.5 18 24.9
003A4E6D 2019-04-12 20:58:03 22.5 18 25
003A4E6D 2019-04-12 20:23:59 22.5 18 25
003A4E6D 2019-04-12 19:49:56 22.5 18 25.1
003A4E6D 2019-04-12 19:15:53 22.6 18 25.2
003A4E6D 2019-04-12 18:41:49 22.7 17 25.1
003A4E6D 2019-04-12 18:07:46 22.8 17 25.1
003A4E6D 2019-04-12 17:33:41 22.8 16 24.8
003A4E6D 2019-04-12 16:59:37 22.8 17 25
003A4E6D 2019-04-12 16:25:33 22.8 17 25.1
003A4E6D 2019-04-12 15:51:29 22.7 17 25.2
003A4E6D 2019-04-12 15:17:26 22.5 18 25.4
003A4E6D 2019-04-12 14:43:23 22.2 18 26.2
003A4E6D 2019-04-12 14:09:19 21.9 18 21
003A4E6D 2019-04-12 13:35:16 21.3 19 22.7
003A4E6D 2019-04-12 13:01:14 20.4 22 0